sat.trackr.live / text

‹ back to catalog

STARLINK-37527

NORAD 68895 · 2026-097A

PAYLOAD ACTIVE UNKNOWN

§ Identity

Operator
Country
US
Launch date
2026-04-30
Launch site
AFWTR
Launch vehicle
Mass (kg)
RCS (m²)

Purposes: comms

External: N2YO · Heavens-Above · Gunter

§ Orbital elements

Epoch: 2026-09-20T00:00:02.998944Z

Period
93.91 min
Inclination
97.2855°
Eccentricity
0.0003122
Mean motion
15.33400021 rev/d
Perigee alt
463.5 km
Apogee alt
467.8 km
Semi-major
6,843.8 km
B*
1.8714e-3
RAAN
97.0764°
Arg perigee
91.8492°
Mean anomaly
154.1413°
Rev number
589

§ Raw data

STARLINK-375271 68895U 26097A   26263.00003471  .00060747  00000+0  18714-2 0  99902 68895  97.2855  97.0764 0003122  91.8492 154.1413 15.33400021  5898

JSON: /api/v1/satellites/68895 · /tle

For live sub-satellite position, see the globe view (requires WebGL).

§ Visibility from observer

Set your observer location to see the next 7 days of passes ≥ 10°. The values pass through the URL so the page stays shareable.

No JS? Fill the form by hand. The geolocation button needs JavaScript.